Terminal Aerodrome Forecast
Issued by NWS

Home | Current Version | Previous Version | Text Only | Print | Product List | Glossary On
Versions: 1 2 3 4 5 6 7 8 9 10 11 12 13 14 15 16 17 18 19 20 21 22 23 24 25 26 27 28 29 30 31 32 33 34 35 36
000
FTUS41 KBOX 180524
TAFBED
TAF
KBED 180524Z 1806/1906 09005KT 2SM -SNPLRA OVC006
     FM180800 08007KT 3SM -RASNPL OVC004
     FM181000 07008KT 3SM -RAPL OVC004
     FM181200 06007KT 3SM -RASN OVC008
     FM181600 05008KT 3SM BR VCSH OVC008=

USA.gov is the U.S. government's official web portal to all federal, state and local government web resources and services.